Haines, AK

3:58 AM AKDT on April 19, 2018 (GMT -0800)
Haines

Weather History for PAHN - February, 2012

Change the Weather History Date:

Thursday, February 23, 2012

  Actual Average Record
Temperature  
Mean Temperature 30 °F -  
Max Temperature 35 °F 33 °F 45 °F (1978)
Min Temperature 26 °F 24 °F 1 °F (1982)
Degree Days  
Heating Degree Days 34    
Moisture  
Dew Point 25 °F    
Average Humidity 81    
Maximum Humidity 93    
Minimum Humidity 66    
Precipitation  
Precipitation 0.00 in - - ()
Sea Level Pressure  
Sea Level Pressure 30.15 in    
Wind  
Wind Speed 9 mph (WNW)    
Max Wind Speed 14 mph    
Max Gust Speed -    
Visibility 10 miles    
Events      
Averages and records for this station are not official NWS values.
T = Trace of Precipitation, MM = Missing Value Source: NWS Daily Summary

Daily Weather History Graph

Daily Weather History Graph

Search for Another Location

Airport or City:

Astronomy

Feb. 23, 2012 Rise Set
Actual Time 7:16 AM AKST 5:15 PM AKST
Civil Twilight 6:35 AM AKST 5:57 PM AKST
Nautical Twilight 5:48 AM AKST 6:44 PM AKST
Astronomical Twilight 5:00 AM AKST 7:31 PM AKST
Moon 7:07 AM AKST (2/23) 8:16 PM AKST (2/23)
Length of Visible Light 11h 21m
Length of Day
9h 58m
Waxing Crescent, 4% of the Moon is Illuminated
Feb 23
Waxing Crescent
Feb 29
First Quarter
Mar 8
Full
Mar 14
Last Quarter
Mar 22
New

Hourly Weather History & Observations

Time (AKST) Temp. Windchill Dew Point Humidity Pressure Visibility Wind Dir Wind Speed Gust Speed Precip Events Conditions
12:54 AM 28.9 °F 21.1 °F 26.1 °F 89% 30.06 in 10.0 mi WNW 8.1 mph - N/A   Overcast
1:54 AM 28.9 °F 21.1 °F 26.1 °F 89% 30.09 in 10.0 mi WNW 8.1 mph - N/A   Overcast
2:54 AM 28.0 °F 18.1 °F 25.0 °F 88% 30.10 in 10.0 mi WNW 11.5 mph - N/A   Overcast
3:49 AM 26.6 °F 17.5 °F 24.8 °F 93% 30.10 in 10.0 mi WNW 9.2 mph - N/A   Overcast
3:54 AM 27.0 °F 16.7 °F 24.1 °F 89% 30.11 in 10.0 mi WNW 11.5 mph - N/A   Overcast
4:11 AM 26.6 °F 18.2 °F 24.8 °F 93% 30.11 in 10.0 mi WNW 8.1 mph - N/A   Overcast
4:54 AM 28.9 °F 21.9 °F 25.0 °F 85% 30.12 in 10.0 mi WNW 6.9 mph - N/A   Partly Cloudy
5:31 AM 26.6 °F 18.2 °F 24.8 °F 93% 30.11 in 10.0 mi WNW 8.1 mph - N/A   Mostly Cloudy
5:54 AM 26.1 °F 14.5 °F 23.0 °F 88% 30.13 in 10.0 mi WNW 13.8 mph - N/A   Overcast
6:54 AM 27.0 °F 16.1 °F 23.0 °F 85% 30.14 in 10.0 mi WNW 12.7 mph - N/A   Overcast
7:54 AM 28.0 °F 17.5 °F 24.1 °F 85% 30.15 in 10.0 mi WNW 12.7 mph - N/A   Overcast
8:54 AM 28.0 °F 19.3 °F 24.1 °F 85% 30.16 in 10.0 mi NW 9.2 mph - N/A   Overcast
9:54 AM 28.0 °F 17.5 °F 23.0 °F 81% 30.18 in 10.0 mi WNW 12.7 mph - N/A   Overcast
10:54 AM 30.0 °F 20.0 °F 24.1 °F 79% 30.19 in 10.0 mi WNW 12.7 mph - N/A   Overcast
11:54 AM 32.0 °F 23.6 °F 25.0 °F 75% 30.19 in 10.0 mi West 10.4 mph - N/A   Overcast
12:54 PM 34.0 °F 25.5 °F 27.0 °F 75% 30.19 in 10.0 mi West 11.5 mph - N/A   Overcast
1:54 PM 35.1 °F 29.3 °F 27.0 °F 72% 30.19 in 10.0 mi West 6.9 mph - N/A   Overcast
2:54 PM 34.0 °F 28.8 °F 27.0 °F 75% 30.17 in 10.0 mi West 5.8 mph - N/A   Mostly Cloudy
3:07 PM 33.8 °F 27.7 °F 26.6 °F 75% 30.16 in 10.0 mi West 6.9 mph - N/A   Scattered Clouds
3:15 PM 33.8 °F 26.4 °F 26.6 °F 75% 30.16 in 10.0 mi WNW 9.2 mph - N/A   Mostly Cloudy
3:54 PM 33.1 °F 26.9 °F 26.1 °F 75% 30.17 in 10.0 mi WNW 6.9 mph - N/A   Overcast
4:35 PM 33.8 °F 26.4 °F 24.8 °F 70% 30.16 in 10.0 mi NW 9.2 mph - N/A   Mostly Cloudy
4:54 PM 34.0 °F 28.0 °F 26.1 °F 73% 30.17 in 10.0 mi NW 6.9 mph - N/A   Mostly Cloudy
5:54 PM 30.0 °F 22.4 °F 26.1 °F 85% 30.17 in 10.0 mi WNW 8.1 mph - N/A   Partly Cloudy
6:54 PM 32.0 °F 24.2 °F 25.0 °F 75% 30.17 in 10.0 mi NW 9.2 mph - N/A   Scattered Clouds
7:54 PM 30.0 °F 20.5 °F 25.0 °F 82% 30.16 in 10.0 mi WNW 11.5 mph - N/A   Clear
8:54 PM 28.9 °F 19.2 °F 23.0 °F 78% 30.15 in 10.0 mi WNW 11.5 mph - N/A   Clear
9:54 PM 28.0 °F 19.3 °F 21.0 °F 75% 30.15 in 10.0 mi WNW 9.2 mph - N/A   Scattered Clouds
10:54 PM 27.0 °F 16.7 °F 21.0 °F 78% 30.14 in 10.0 mi WNW 11.5 mph - N/A   Clear
11:54 PM 30.0 °F 21.1 °F 19.9 °F 66% 30.14 in 10.0 mi NW 10.4 mph - N/A   Overcast